Time,TemperatureF,DewpointF,PressureIn,WindDirection,WindDirectionDegrees,WindSpeedMPH,WindSpeedGustMPH,Humidity,HourlyPrecipIn,Conditions,Clouds,dailyrainin,SoftwareType,DateUTC
2013-09-16 00:01:00,59.0,57.0,30.26,SE,125,0.0,0.0,93,0.00,,,0.00,WeatherCatV1.20B785,2013-09-16 04:01:00,
2013-09-16 00:06:00,58.9,56.9,30.26,SE,125,0.0,0.0,93,0.00,,,0.00,WeatherCatV1.20B785,2013-09-16 04:06:00,
2013-09-16 00:11:00,58.6,56.6,30.26,SE,125,0.0,0.0,93,0.00,,,0.00,WeatherCatV1.20B785,2013-09-16 04:11:00,
2013-09-16 00:16:00,58.4,56.4,30.26,SE,125,0.0,0.0,93,0.00,,,0.00,WeatherCatV1.20B785,2013-09-16 04:16:00,
2013-09-16 00:21:00,58.2,56.5,30.26,SE,125,0.0,0.0,94,0.00,,,0.00,WeatherCatV1.20B785,2013-09-16 04:21:00,
2013-09-16 00:26:00,58.1,56.4,30.26,SE,125,0.0,0.0,94,0.00,,,0.00,WeatherCatV1.20B785,2013-09-16 04:26:00,
2013-09-16 00:31:00,58.0,56.6,30.26,SE,125,0.0,0.0,95,0.00,,,0.00,WeatherCatV1.20B785,2013-09-16 04:31:00,
2013-09-16 00:36:00,57.9,56.5,30.25,SE,125,0.0,1.0,95,0.00,,,0.00,WeatherCatV1.20B785,2013-09-16 04:36:00,
2013-09-16 00:41:00,57.8,56.7,30.25,SE,125,0.0,0.0,96,0.00,,,0.00,WeatherCatV1.20B785,2013-09-16 04:41:00,
2013-09-16 00:46:00,57.7,56.6,30.25,SE,125,0.0,0.0,96,0.00,,,0.00,WeatherCatV1.20B785,2013-09-16 04:46:00,
2013-09-16 00:51:00,57.6,56.5,30.25,SE,125,0.0,1.0,96,0.00,,,0.00,WeatherCatV1.20B785,2013-09-16 04:51:00,
2013-09-16 00:56:00,57.6,56.5,30.26,SE,125,0.0,0.0,96,0.00,,,0.00,WeatherCatV1.20B785,2013-09-16 04:56:00,
2013-09-16 01:01:00,57.6,56.5,30.26,SE,125,0.0,0.0,96,0.00,,,0.00,WeatherCatV1.20B785,2013-09-16 05:01:00,
2013-09-16 01:06:00,57.7,56.3,30.26,SE,125,0.0,0.0,95,0.00,,,0.00,WeatherCatV1.20B785,2013-09-16 05:06:00,
2013-09-16 01:11:00,57.8,56.4,30.26,SE,125,0.0,0.0,95,0.00,,,0.00,WeatherCatV1.20B785,2013-09-16 05:11:00,
2013-09-16 01:16:00,57.9,56.5,30.26,SE,125,0.0,0.0,95,0.00,,,0.00,WeatherCatV1.20B785,2013-09-16 05:16:00,
2013-09-16 01:21:00,57.8,56.4,30.26,SE,125,0.0,0.0,95,0.00,,,0.00,WeatherCatV1.20B785,2013-09-16 05:21:00,
2013-09-16 01:26:00,57.9,56.5,30.26,SE,125,0.0,0.0,95,0.00,,,0.00,WeatherCatV1.20B785,2013-09-16 05:26:00,
2013-09-16 01:31:00,58.0,56.6,30.26,SE,125,0.0,0.0,95,0.00,,,0.00,WeatherCatV1.20B785,2013-09-16 05:31:00,
2013-09-16 01:36:00,58.3,56.9,30.26,ESE,113,0.0,3.0,95,0.00,,,0.00,WeatherCatV1.20B785,2013-09-16 05:36:00,
2013-09-16 01:41:00,58.6,57.2,30.26,ENE,69,0.0,1.0,95,0.00,,,0.00,WeatherCatV1.20B785,2013-09-16 05:41:00,
2013-09-16 01:46:00,58.7,57.3,30.26,ENE,69,0.0,1.0,95,0.00,,,0.00,WeatherCatV1.20B785,2013-09-16 05:46:00,
2013-09-16 01:51:00,58.8,57.4,30.26,SSE,160,0.0,2.0,95,0.00,,,0.00,WeatherCatV1.20B785,2013-09-16 05:51:00,
2013-09-16 01:56:00,59.0,57.6,30.26,SSE,161,0.0,1.0,95,0.00,,,0.00,WeatherCatV1.20B785,2013-09-16 05:56:00,
2013-09-16 02:01:00,59.0,57.3,30.26,SSE,161,0.0,0.0,94,0.00,,,0.00,WeatherCatV1.20B785,2013-09-16 06:01:00,
2013-09-16 02:06:00,59.0,57.3,30.25,SSE,153,0.0,2.0,94,0.00,,,0.00,WeatherCatV1.20B785,2013-09-16 06:06:00,
2013-09-16 02:11:00,59.1,57.1,30.25,SSE,152,1.0,2.0,93,0.00,,,0.00,WeatherCatV1.20B785,2013-09-16 06:11:00,
2013-09-16 02:16:00,59.5,57.2,30.25,SE,141,0.0,5.0,92,0.00,,,0.00,WeatherCatV1.20B785,2013-09-16 06:16:00,
2013-09-16 02:21:00,59.6,57.3,30.25,SE,142,0.0,0.0,92,0.00,,,0.00,WeatherCatV1.20B785,2013-09-16 06:21:00,
2013-09-16 02:26:00,59.7,57.4,30.25,SE,141,0.0,1.0,92,0.00,,,0.00,WeatherCatV1.20B785,2013-09-16 06:26:00,
2013-09-16 02:31:00,59.6,57.3,30.25,SE,141,2.0,2.0,92,0.00,,,0.00,WeatherCatV1.20B785,2013-09-16 06:31:00,
2013-09-16 02:36:00,59.5,57.2,30.25,SE,142,0.0,0.0,92,0.00,,,0.00,WeatherCatV1.20B785,2013-09-16 06:36:00,
2013-09-16 02:41:00,59.6,56.7,30.25,SE,142,0.0,0.0,90,0.00,,,0.00,WeatherCatV1.20B785,2013-09-16 06:41:00,
2013-09-16 02:46:00,59.7,56.5,30.25,SE,142,0.0,2.0,89,0.00,,,0.00,WeatherCatV1.20B785,2013-09-16 06:46:00,
2013-09-16 02:51:00,59.8,55.9,30.25,SE,142,0.0,0.0,87,0.00,,,0.00,WeatherCatV1.20B785,2013-09-16 06:51:00,
2013-09-16 02:56:00,59.9,55.7,30.25,SE,142,0.0,0.0,86,0.00,,,0.00,WeatherCatV1.20B785,2013-09-16 06:56:00,
2013-09-16 03:01:00,59.9,55.7,30.25,SE,141,0.0,1.0,86,0.00,,,0.00,WeatherCatV1.20B785,2013-09-16 07:01:00,
2013-09-16 03:06:00,59.8,55.3,30.25,SE,142,0.0,1.0,85,0.00,,,0.00,WeatherCatV1.20B785,2013-09-16 07:06:00,
2013-09-16 03:11:00,59.8,55.0,30.25,SSW,204,0.0,1.0,84,0.00,,,0.00,WeatherCatV1.20B785,2013-09-16 07:11:00,
2013-09-16 03:16:00,59.7,54.8,30.25,SSW,203,0.0,0.0,84,0.00,,,0.00,WeatherCatV1.20B785,2013-09-16 07:16:00,
2013-09-16 03:21:00,59.6,54.4,30.25,SSW,203,0.0,0.0,83,0.00,,,0.00,WeatherCatV1.20B785,2013-09-16 07:21:00,
2013-09-16 03:26:00,59.6,54.4,30.25,SSW,204,0.0,0.0,83,0.00,,,0.00,WeatherCatV1.20B785,2013-09-16 07:26:00,
2013-09-16 03:31:00,59.8,54.6,30.24,SSW,203,0.0,0.0,83,0.00,,,0.00,WeatherCatV1.20B785,2013-09-16 07:31:00,
2013-09-16 03:36:00,59.9,54.4,30.25,SSW,204,0.0,2.0,82,0.00,,,0.00,WeatherCatV1.20B785,2013-09-16 07:36:00,
2013-09-16 03:41:00,59.9,54.7,30.25,SSW,203,0.0,0.0,83,0.00,,,0.00,WeatherCatV1.20B785,2013-09-16 07:41:00,
2013-09-16 03:46:00,60.1,54.6,30.25,SSW,204,0.0,1.0,82,0.00,,,0.00,WeatherCatV1.20B785,2013-09-16 07:46:00,
2013-09-16 03:51:00,60.2,55.0,30.25,SSW,203,0.0,0.0,83,0.00,,,0.00,WeatherCatV1.20B785,2013-09-16 07:51:00,
2013-09-16 03:56:00,60.2,55.3,30.24,SW,219,0.0,0.0,84,0.00,,,0.00,WeatherCatV1.20B785,2013-09-16 07:56:00,
2013-09-16 04:01:00,60.1,55.2,30.24,SW,219,1.0,1.0,84,0.00,,,0.00,WeatherCatV1.20B785,2013-09-16 08:01:00,
2013-09-16 04:06:00,59.9,55.4,30.24,SW,218,0.0,1.0,85,0.00,,,0.00,WeatherCatV1.20B785,2013-09-16 08:06:00,
2013-09-16 04:11:00,59.8,55.3,30.24,SW,218,0.0,0.0,85,0.00,,,0.00,WeatherCatV1.20B785,2013-09-16 08:11:00,
2013-09-16 04:16:00,59.7,55.5,30.24,SW,217,0.0,0.0,86,0.00,,,0.00,WeatherCatV1.20B785,2013-09-16 08:16:00,
2013-09-16 04:21:00,59.7,55.5,30.24,SW,216,0.0,0.0,86,0.00,,,0.00,WeatherCatV1.20B785,2013-09-16 08:21:00,
2013-09-16 04:26:00,59.8,55.6,30.24,SW,216,0.0,0.0,86,0.00,,,0.00,WeatherCatV1.20B785,2013-09-16 08:26:00,
2013-09-16 04:31:00,59.8,55.9,30.24,SW,216,0.0,0.0,87,0.00,,,0.00,WeatherCatV1.20B785,2013-09-16 08:31:00,
2013-09-16 04:36:00,59.8,55.9,30.24,SW,216,0.0,0.0,87,0.00,,,0.00,WeatherCatV1.20B785,2013-09-16 08:36:00,
2013-09-16 04:41:00,59.8,55.9,30.24,SW,216,0.0,0.0,87,0.00,,,0.00,WeatherCatV1.20B785,2013-09-16 08:41:00,
2013-09-16 04:46:00,59.8,56.2,30.24,SW,216,0.0,0.0,88,0.00,,,0.00,WeatherCatV1.20B785,2013-09-16 08:46:00,
2013-09-16 04:51:00,59.8,56.5,30.24,SW,215,0.0,0.0,89,0.00,,,0.00,WeatherCatV1.20B785,2013-09-16 08:51:00,
2013-09-16 04:56:00,59.7,56.5,30.24,SW,216,0.0,0.0,89,0.00,,,0.00,WeatherCatV1.20B785,2013-09-16 08:56:00,
2013-09-16 05:01:00,59.6,56.3,30.24,SW,216,0.0,0.0,89,0.00,,,0.00,WeatherCatV1.20B785,2013-09-16 09:01:00,
2013-09-16 05:06:00,59.4,56.2,30.24,SW,215,0.0,0.0,89,0.00,,,0.00,WeatherCatV1.20B785,2013-09-16 09:06:00,
2013-09-16 05:11:00,59.1,56.2,30.24,SW,216,0.0,1.0,90,0.00,,,0.00,WeatherCatV1.20B785,2013-09-16 09:11:00,
2013-09-16 05:16:00,59.0,56.1,30.24,South,185,1.0,3.0,90,0.00,,,0.00,WeatherCatV1.20B785,2013-09-16 09:16:00,
2013-09-16 05:21:00,59.1,56.2,30.24,South,183,0.0,1.0,90,0.00,,,0.00,WeatherCatV1.20B785,2013-09-16 09:21:00,
2013-09-16 05:26:00,59.0,55.8,30.24,South,179,0.0,0.0,89,0.00,,,0.00,WeatherCatV1.20B785,2013-09-16 09:26:00,
2013-09-16 05:31:00,59.1,55.9,30.23,South,179,0.0,1.0,89,0.00,,,0.00,WeatherCatV1.20B785,2013-09-16 09:31:00,
2013-09-16 05:36:00,59.1,56.2,30.24,South,179,0.0,0.0,90,0.00,,,0.00,WeatherCatV1.20B785,2013-09-16 09:36:00,
2013-09-16 05:41:00,59.0,55.8,30.24,South,179,0.0,0.0,89,0.00,,,0.00,WeatherCatV1.20B785,2013-09-16 09:41:00,
2013-09-16 05:46:00,59.0,56.1,30.23,SSW,205,0.0,3.0,90,0.00,,,0.00,WeatherCatV1.20B785,2013-09-16 09:46:00,
2013-09-16 05:51:00,59.0,56.1,30.23,North,0,0.0,0.0,90,0.00,,,0.00,WeatherCatV1.20B785,2013-09-16 09:51:00,
2013-09-16 05:56:00,59.0,56.1,30.24,NNW,348,0.0,0.0,90,0.00,,,0.00,WeatherCatV1.20B785,2013-09-16 09:56:00,
2013-09-16 06:01:00,59.0,56.1,30.24,NNW,348,0.0,0.0,90,0.00,,,0.00,WeatherCatV1.20B785,2013-09-16 10:01:00,
2013-09-16 06:06:00,59.1,56.2,30.23,NE,48,0.0,1.0,90,0.00,,,0.00,WeatherCatV1.20B785,2013-09-16 10:06:00,
2013-09-16 06:11:00,59.1,55.9,30.23,NNW,337,0.0,0.0,89,0.00,,,0.00,WeatherCatV1.20B785,2013-09-16 10:11:00,
2013-09-16 06:16:00,59.3,56.0,30.23,NNE,29,0.0,0.0,89,0.00,,,0.00,WeatherCatV1.20B785,2013-09-16 10:16:00,
2013-09-16 06:21:00,59.4,55.8,30.24,WSW,248,0.0,4.0,88,0.00,,,0.00,WeatherCatV1.20B785,2013-09-16 10:21:00,
2013-09-16 06:26:00,59.5,55.9,30.24,SSW,200,0.0,0.0,88,0.00,,,0.00,WeatherCatV1.20B785,2013-09-16 10:26:00,
2013-09-16 06:31:00,59.7,56.1,30.24,SSW,213,0.0,0.0,88,0.00,,,0.00,WeatherCatV1.20B785,2013-09-16 10:31:00,
2013-09-16 06:36:00,59.8,56.2,30.24,SSW,213,0.0,0.0,88,0.00,,,0.00,WeatherCatV1.20B785,2013-09-16 10:36:00,
2013-09-16 06:41:00,59.8,56.2,30.24,SSW,213,0.0,1.0,88,0.00,,,0.00,WeatherCatV1.20B785,2013-09-16 10:41:00,
2013-09-16 06:46:00,59.7,56.1,30.24,SSW,212,0.0,0.0,88,0.00,,,0.00,WeatherCatV1.20B785,2013-09-16 10:46:00,
2013-09-16 06:51:00,59.7,56.1,30.24,SSW,211,0.0,2.0,88,0.00,,,0.00,WeatherCatV1.20B785,2013-09-16 10:51:00,
2013-09-16 06:56:00,59.7,56.1,30.24,SSW,212,0.0,2.0,88,0.00,,,0.00,WeatherCatV1.20B785,2013-09-16 10:56:00,
2013-09-16 07:01:00,59.6,56.0,30.24,SSW,212,0.0,0.0,88,0.00,,,0.00,WeatherCatV1.20B785,2013-09-16 11:01:00,
2013-09-16 07:06:00,59.6,56.0,30.24,SSW,211,0.0,0.0,88,0.00,,,0.00,WeatherCatV1.20B785,2013-09-16 11:06:00,
2013-09-16 07:11:00,59.5,55.9,30.24,SSW,211,0.0,0.0,88,0.00,,,0.00,WeatherCatV1.20B785,2013-09-16 11:11:00,
2013-09-16 07:16:00,59.5,55.9,30.24,SW,235,0.0,4.0,88,0.00,,,0.00,WeatherCatV1.20B785,2013-09-16 11:16:00,
2013-09-16 07:21:00,59.5,56.2,30.24,East,86,0.0,0.0,89,0.00,,,0.00,WeatherCatV1.20B785,2013-09-16 11:21:00,
2013-09-16 07:26:00,59.3,56.0,30.24,East,86,0.0,0.0,89,0.00,,,0.00,WeatherCatV1.20B785,2013-09-16 11:26:00,
2013-09-16 07:31:00,59.2,56.0,30.24,East,85,0.0,0.0,89,0.00,,,0.00,WeatherCatV1.20B785,2013-09-16 11:31:00,
2013-09-16 07:36:00,59.0,55.8,30.24,East,85,0.0,0.0,89,0.00,,,0.00,WeatherCatV1.20B785,2013-09-16 11:36:00,
2013-09-16 07:41:00,59.0,55.8,30.24,ENE,57,0.0,4.0,89,0.00,,,0.00,WeatherCatV1.20B785,2013-09-16 11:41:00,
2013-09-16 07:46:00,59.0,56.1,30.24,NE,56,0.0,0.0,90,0.00,,,0.00,WeatherCatV1.20B785,2013-09-16 11:46:00,
2013-09-16 07:51:00,59.0,56.1,30.24,East,88,0.0,1.0,90,0.00,,,0.00,WeatherCatV1.20B785,2013-09-16 11:51:00,
2013-09-16 07:56:00,59.0,56.1,30.25,East,86,0.0,1.0,90,0.00,,,0.00,WeatherCatV1.20B785,2013-09-16 11:56:00,
2013-09-16 08:01:00,59.0,56.1,30.25,East,86,0.0,3.0,90,0.00,,,0.00,WeatherCatV1.20B785,2013-09-16 12:01:00,
2013-09-16 08:06:00,59.0,56.1,30.24,East,86,0.0,1.0,90,0.00,,,0.00,WeatherCatV1.20B785,2013-09-16 12:06:00,
2013-09-16 08:11:00,59.0,56.1,30.24,NE,50,0.0,4.0,90,0.00,,,0.00,WeatherCatV1.20B785,2013-09-16 12:11:00,
2013-09-16 08:16:00,59.0,56.4,30.24,NNE,14,3.0,3.0,91,0.00,,,0.00,WeatherCatV1.20B785,2013-09-16 12:16:00,
2013-09-16 08:21:00,59.0,56.4,30.24,NNE,26,0.0,1.0,91,0.00,,,0.00,WeatherCatV1.20B785,2013-09-16 12:21:00,
2013-09-16 08:26:00,59.0,56.4,30.24,NNE,27,0.0,4.0,91,0.00,,,0.00,WeatherCatV1.20B785,2013-09-16 12:26:00,
2013-09-16 08:31:00,59.0,56.4,30.24,NNE,18,4.0,5.0,91,0.00,,,0.00,WeatherCatV1.20B785,2013-09-16 12:31:00,
2013-09-16 08:36:00,59.2,56.6,30.23,NE,40,0.0,3.0,91,0.00,,,0.00,WeatherCatV1.20B785,2013-09-16 12:36:00,
2013-09-16 08:41:00,59.5,56.6,30.24,NNE,19,0.0,6.0,90,0.00,,,0.00,WeatherCatV1.20B785,2013-09-16 12:41:00,
2013-09-16 08:46:00,59.8,56.9,30.24,NNE,17,6.0,7.0,90,0.00,,,0.00,WeatherCatV1.20B785,2013-09-16 12:46:00,
2013-09-16 08:51:00,60.1,57.2,30.24,NNE,14,1.0,5.0,90,0.00,,,0.00,WeatherCatV1.20B785,2013-09-16 12:51:00,
2013-09-16 08:56:00,60.3,57.0,30.24,NE,37,0.0,0.0,89,0.00,,,0.00,WeatherCatV1.20B785,2013-09-16 12:56:00,
2013-09-16 09:01:00,60.5,57.2,30.24,NNE,13,7.0,8.0,89,0.00,,,0.00,WeatherCatV1.20B785,2013-09-16 13:01:00,
2013-09-16 09:06:00,60.7,57.4,30.24,NNE,26,0.0,0.0,89,0.00,,,0.00,WeatherCatV1.20B785,2013-09-16 13:06:00,
2013-09-16 09:11:00,60.7,57.4,30.24,ENE,64,3.0,13.0,89,0.00,,,0.00,WeatherCatV1.20B785,2013-09-16 13:11:00,
2013-09-16 09:16:00,60.8,57.2,30.24,NNE,16,3.0,5.0,88,0.00,,,0.00,WeatherCatV1.20B785,2013-09-16 13:16:00,
2013-09-16 09:21:00,60.9,57.6,30.24,NE,43,3.0,4.0,89,0.00,,,0.00,WeatherCatV1.20B785,2013-09-16 13:21:00,
2013-09-16 09:26:00,61.0,57.4,30.24,NNE,28,0.0,3.0,88,0.00,,,0.00,WeatherCatV1.20B785,2013-09-16 13:26:00,
2013-09-16 09:31:00,61.1,57.8,30.25,NNE,14,2.0,8.0,89,0.00,,,0.00,WeatherCatV1.20B785,2013-09-16 13:31:00,
2013-09-16 09:36:00,61.2,57.9,30.24,NNE,18,0.0,10.0,89,0.00,,,0.00,WeatherCatV1.20B785,2013-09-16 13:36:00,
2013-09-16 09:41:00,61.4,58.1,30.25,NE,46,1.0,5.0,89,0.00,,,0.00,WeatherCatV1.20B785,2013-09-16 13:41:00,
2013-09-16 09:46:00,61.6,58.0,30.25,NNE,30,0.0,3.0,88,0.00,,,0.00,WeatherCatV1.20B785,2013-09-16 13:46:00,
2013-09-16 09:51:00,61.7,58.1,30.25,NE,40,3.0,3.0,88,0.00,,,0.00,WeatherCatV1.20B785,2013-09-16 13:51:00,
2013-09-16 09:56:00,61.7,58.1,30.25,NNE,13,0.0,2.0,88,0.00,,,0.00,WeatherCatV1.20B785,2013-09-16 13:56:00,
2013-09-16 10:01:00,61.8,58.2,30.25,NNE,24,0.0,5.0,88,0.00,,,0.00,WeatherCatV1.20B785,2013-09-16 14:01:00,
2013-09-16 10:06:00,61.9,58.3,30.25,NNE,29,3.0,5.0,88,0.00,,,0.00,WeatherCatV1.20B785,2013-09-16 14:06:00,
2013-09-16 10:11:00,62.0,58.4,30.25,North,350,3.0,3.0,88,0.00,,,0.00,WeatherCatV1.20B785,2013-09-16 14:11:00,
2013-09-16 10:16:00,62.0,58.4,30.25,NNE,16,2.0,11.0,88,0.00,,,0.00,WeatherCatV1.20B785,2013-09-16 14:16:00,
2013-09-16 10:21:00,62.0,58.4,30.25,NNE,14,2.0,5.0,88,0.00,,,0.00,WeatherCatV1.20B785,2013-09-16 14:21:00,
2013-09-16 10:27:00,62.1,58.8,30.25,NNE,24,1.0,3.0,89,0.00,,,0.00,WeatherCatV1.20B785,2013-09-16 14:27:00,
2013-09-16 10:32:00,62.2,58.9,30.25,NNE,21,1.0,7.0,89,0.00,,,0.00,WeatherCatV1.20B785,2013-09-16 14:32:00,
2013-09-16 10:37:00,62.5,58.9,30.25,North,5,0.0,1.0,88,0.00,,,0.00,WeatherCatV1.20B785,2013-09-16 14:37:00,
2013-09-16 10:42:00,63.0,59.1,30.26,NE,42,0.0,10.0,87,0.00,,,0.00,WeatherCatV1.20B785,2013-09-16 14:42:00,
2013-09-16 10:47:00,63.5,59.2,30.26,NNE,24,1.0,15.0,86,0.00,,,0.00,WeatherCatV1.20B785,2013-09-16 14:47:00,
2013-09-16 10:52:00,63.8,59.2,30.26,NNE,21,6.0,7.0,85,0.00,,,0.00,WeatherCatV1.20B785,2013-09-16 14:52:00,
2013-09-16 10:57:00,64.0,59.7,30.26,NNE,24,3.0,9.0,86,0.00,,,0.00,WeatherCatV1.20B785,2013-09-16 14:57:00,
2013-09-16 11:02:00,64.4,59.8,30.26,NNE,28,6.0,6.0,85,0.00,,,0.00,WeatherCatV1.20B785,2013-09-16 15:02:00,
2013-09-16 11:07:00,65.1,60.1,30.25,NNE,24,0.0,4.0,84,0.00,,,0.00,WeatherCatV1.20B785,2013-09-16 15:07:00,
2013-09-16 11:12:00,65.9,60.2,30.25,NNE,30,3.0,4.0,82,0.00,,,0.00,WeatherCatV1.20B785,2013-09-16 15:12:00,
2013-09-16 11:17:00,66.5,60.5,30.25,NNE,28,0.0,11.0,81,0.00,,,0.00,WeatherCatV1.20B785,2013-09-16 15:17:00,
2013-09-16 11:22:00,67.0,61.0,30.25,NNE,28,0.0,4.0,81,0.00,,,0.00,WeatherCatV1.20B785,2013-09-16 15:22:00,
2013-09-16 11:27:00,67.5,60.4,30.25,NE,37,5.0,6.0,78,0.00,,,0.00,WeatherCatV1.20B785,2013-09-16 15:27:00,
2013-09-16 11:32:00,67.4,60.7,30.25,North,11,0.0,10.0,79,0.00,,,0.00,WeatherCatV1.20B785,2013-09-16 15:32:00,
2013-09-16 11:37:00,67.3,61.3,30.25,NNE,28,1.0,5.0,81,0.00,,,0.00,WeatherCatV1.20B785,2013-09-16 15:37:00,
2013-09-16 11:42:00,67.4,61.4,30.25,North,5,6.0,7.0,81,0.00,,,0.00,WeatherCatV1.20B785,2013-09-16 15:42:00,
2013-09-16 11:47:00,67.5,61.1,30.25,NE,48,0.0,3.0,80,0.00,,,0.00,WeatherCatV1.20B785,2013-09-16 15:47:00,
2013-09-16 11:52:00,67.7,61.3,30.25,North,5,7.0,7.0,80,0.00,,,0.00,WeatherCatV1.20B785,2013-09-16 15:52:00,
2013-09-16 11:57:00,68.0,61.6,30.24,NNE,22,3.0,3.0,80,0.00,,,0.00,WeatherCatV1.20B785,2013-09-16 15:57:00,
2013-09-16 12:02:00,68.2,61.4,30.24,NNE,16,1.0,5.0,79,0.00,,,0.00,WeatherCatV1.20B785,2013-09-16 16:02:00,
2013-09-16 12:07:00,68.5,61.4,30.24,NNE,26,1.0,5.0,78,0.00,,,0.00,WeatherCatV1.20B785,2013-09-16 16:07:00,
2013-09-16 12:12:00,68.4,61.3,30.24,NNE,19,3.0,7.0,78,0.00,,,0.00,WeatherCatV1.20B785,2013-09-16 16:12:00,
2013-09-16 12:17:00,68.4,62.0,30.24,NNE,13,8.0,8.0,80,0.00,,,0.00,WeatherCatV1.20B785,2013-09-16 16:17:00,
2013-09-16 12:22:00,68.7,61.2,30.24,North,0,5.0,13.0,77,0.00,,,0.00,WeatherCatV1.20B785,2013-09-16 16:22:00,
2013-09-16 12:27:00,68.9,61.8,30.24,NE,51,0.0,11.0,78,0.00,,,0.00,WeatherCatV1.20B785,2013-09-16 16:27:00,
2013-09-16 12:32:00,68.9,61.4,30.24,NE,37,0.0,2.0,77,0.00,,,0.00,WeatherCatV1.20B785,2013-09-16 16:32:00,
2013-09-16 12:37:00,68.8,60.2,30.24,NNE,26,0.0,5.0,74,0.00,,,0.00,WeatherCatV1.20B785,2013-09-16 16:37:00,
2013-09-16 12:42:00,68.7,60.8,30.24,NE,38,0.0,12.0,76,0.00,,,0.00,WeatherCatV1.20B785,2013-09-16 16:42:00,
2013-09-16 12:47:00,68.3,61.2,30.24,NNE,19,0.0,1.0,78,0.00,,,0.00,WeatherCatV1.20B785,2013-09-16 16:47:00,
2013-09-16 12:52:00,68.1,61.3,30.23,NE,46,2.0,2.0,79,0.00,,,0.00,WeatherCatV1.20B785,2013-09-16 16:52:00,
2013-09-16 12:57:00,68.0,60.5,30.24,NE,46,0.0,1.0,77,0.00,,,0.00,WeatherCatV1.20B785,2013-09-16 16:57:00,
2013-09-16 13:02:00,67.9,60.0,30.24,NE,46,2.0,3.0,76,0.00,,,0.00,WeatherCatV1.20B785,2013-09-16 17:02:00,
2013-09-16 13:07:00,67.6,60.1,30.24,North,11,0.0,7.0,77,0.00,,,0.00,WeatherCatV1.20B785,2013-09-16 17:07:00,
2013-09-16 13:12:00,67.0,59.5,30.24,WSW,253,1.0,5.0,77,0.00,,,0.00,WeatherCatV1.20B785,2013-09-16 17:12:00,
2013-09-16 13:17:00,66.8,59.7,30.23,NNW,344,3.0,4.0,78,0.00,,,0.00,WeatherCatV1.20B785,2013-09-16 17:17:00,
2013-09-16 13:22:00,66.8,59.7,30.23,NE,49,2.0,6.0,78,0.00,,,0.00,WeatherCatV1.20B785,2013-09-16 17:22:00,
2013-09-16 13:27:00,66.5,59.1,30.23,NNE,13,0.0,3.0,77,0.00,,,0.00,WeatherCatV1.20B785,2013-09-16 17:27:00,
2013-09-16 13:32:00,66.4,59.7,30.23,NNE,28,0.0,7.0,79,0.00,,,0.00,WeatherCatV1.20B785,2013-09-16 17:32:00,
2013-09-16 13:37:00,66.5,58.3,30.23,NW,318,0.0,3.0,75,0.00,,,0.00,WeatherCatV1.20B785,2013-09-16 17:37:00,
2013-09-16 13:42:00,66.7,59.2,30.23,North,0,0.0,0.0,77,0.00,,,0.00,WeatherCatV1.20B785,2013-09-16 17:42:00,
2013-09-16 13:47:00,66.7,60.0,30.22,NNE,26,3.0,3.0,79,0.00,,,0.00,WeatherCatV1.20B785,2013-09-16 17:47:00,
2013-09-16 13:52:00,66.8,59.3,30.23,NNE,21,2.0,9.0,77,0.00,,,0.00,WeatherCatV1.20B785,2013-09-16 17:52:00,
2013-09-16 13:57:00,66.9,58.0,30.23,WSW,246,0.0,2.0,73,0.00,,,0.00,WeatherCatV1.20B785,2013-09-16 17:57:00,
2013-09-16 14:02:00,67.0,58.8,30.22,NE,38,0.0,10.0,75,0.00,,,0.00,WeatherCatV1.20B785,2013-09-16 18:02:00,
2013-09-16 14:07:00,67.2,59.4,30.23,North,0,0.0,5.0,76,0.00,,,0.00,WeatherCatV1.20B785,2013-09-16 18:07:00,
2013-09-16 14:12:00,67.4,60.3,30.22,North,11,0.0,3.0,78,0.00,,,0.00,WeatherCatV1.20B785,2013-09-16 18:12:00,
2013-09-16 14:17:00,67.4,58.8,30.22,West,273,5.0,6.0,74,0.00,,,0.00,WeatherCatV1.20B785,2013-09-16 18:17:00,
2013-09-16 14:22:00,67.5,59.3,30.22,NNE,24,0.0,7.0,75,0.00,,,0.00,WeatherCatV1.20B785,2013-09-16 18:22:00,
2013-09-16 14:27:00,67.8,59.6,30.22,West,270,0.0,12.0,75,0.00,,,0.00,WeatherCatV1.20B785,2013-09-16 18:27:00,
2013-09-16 14:32:00,68.1,59.5,30.22,NNE,19,0.0,1.0,74,0.00,,,0.00,WeatherCatV1.20B785,2013-09-16 18:32:00,
2013-09-16 14:37:00,68.2,60.0,30.22,NNE,18,0.0,7.0,75,0.00,,,0.00,WeatherCatV1.20B785,2013-09-16 18:37:00,
2013-09-16 14:42:00,68.3,60.1,30.22,NNE,22,0.0,4.0,75,0.00,,,0.00,WeatherCatV1.20B785,2013-09-16 18:42:00,
2013-09-16 14:47:00,68.2,60.0,30.22,NNE,22,0.0,1.0,75,0.00,,,0.00,WeatherCatV1.20B785,2013-09-16 18:47:00,
2013-09-16 14:52:00,68.0,59.4,30.21,WNW,286,0.0,3.0,74,0.00,,,0.00,WeatherCatV1.20B785,2013-09-16 18:52:00,
2013-09-16 14:57:00,68.0,59.4,30.21,WNW,285,1.0,4.0,74,0.00,,,0.00,WeatherCatV1.20B785,2013-09-16 18:57:00,
2013-09-16 15:02:00,68.1,59.9,30.21,WNW,301,1.0,1.0,75,0.00,,,0.00,WeatherCatV1.20B785,2013-09-16 19:02:00,
2013-09-16 15:07:00,68.3,60.1,30.21,North,5,9.0,9.0,75,0.00,,,0.00,WeatherCatV1.20B785,2013-09-16 19:07:00,
2013-09-16 15:12:00,68.4,59.4,30.20,NE,40,3.0,3.0,73,0.00,,,0.00,WeatherCatV1.20B785,2013-09-16 19:12:00,
2013-09-16 15:17:00,68.6,59.6,30.20,NE,38,0.0,2.0,73,0.00,,,0.00,WeatherCatV1.20B785,2013-09-16 19:17:00,
2013-09-16 15:22:00,68.6,59.6,30.20,NE,34,3.0,5.0,73,0.00,,,0.00,WeatherCatV1.20B785,2013-09-16 19:22:00,
2013-09-16 15:27:00,68.7,60.5,30.20,NNE,32,1.0,3.0,75,0.00,,,0.00,WeatherCatV1.20B785,2013-09-16 19:27:00,
2013-09-16 15:32:00,68.9,59.5,30.20,NNE,22,1.0,6.0,72,0.00,,,0.00,WeatherCatV1.20B785,2013-09-16 19:32:00,
2013-09-16 15:37:00,69.0,59.6,30.20,NNE,15,1.0,6.0,72,0.00,,,0.00,WeatherCatV1.20B785,2013-09-16 19:37:00,
2013-09-16 15:42:00,68.8,57.8,30.19,NE,42,4.0,6.0,68,0.00,,,0.00,WeatherCatV1.20B785,2013-09-16 19:42:00,
2013-09-16 15:47:00,68.4,58.2,30.19,NNE,15,5.0,6.0,70,0.00,,,0.00,WeatherCatV1.20B785,2013-09-16 19:47:00,
2013-09-16 15:52:00,68.3,57.7,30.19,ENE,57,0.0,4.0,69,0.00,,,0.00,WeatherCatV1.20B785,2013-09-16 19:52:00,
2013-09-16 15:57:00,68.4,57.8,30.19,NE,38,0.0,4.0,69,0.00,,,0.00,WeatherCatV1.20B785,2013-09-16 19:57:00,
2013-09-16 16:02:00,68.6,58.0,30.19,NNE,19,1.0,4.0,69,0.00,,,0.00,WeatherCatV1.20B785,2013-09-16 20:02:00,
2013-09-16 16:07:00,68.6,57.2,30.19,NNE,27,0.0,7.0,67,0.00,,,0.00,WeatherCatV1.20B785,2013-09-16 20:07:00,
2013-09-16 16:12:00,68.6,57.2,30.19,NE,37,0.0,1.0,67,0.00,,,0.00,WeatherCatV1.20B785,2013-09-16 20:12:00,
2013-09-16 16:17:00,68.4,57.8,30.19,NNE,33,0.0,10.0,69,0.00,,,0.00,WeatherCatV1.20B785,2013-09-16 20:17:00,
2013-09-16 16:22:00,68.2,57.6,30.19,NE,44,0.0,0.0,69,0.00,,,0.00,WeatherCatV1.20B785,2013-09-16 20:22:00,
2013-09-16 16:27:00,67.9,57.7,30.19,North,11,0.0,3.0,70,0.00,,,0.00,WeatherCatV1.20B785,2013-09-16 20:27:00,
2013-09-16 16:32:00,68.0,58.6,30.19,NE,49,0.0,3.0,72,0.00,,,0.00,WeatherCatV1.20B785,2013-09-16 20:32:00,
2013-09-16 16:37:00,68.4,58.2,30.19,ENE,64,1.0,4.0,70,0.00,,,0.00,WeatherCatV1.20B785,2013-09-16 20:37:00,
2013-09-16 16:42:00,68.9,59.9,30.19,NE,45,1.0,7.0,73,0.00,,,0.00,WeatherCatV1.20B785,2013-09-16 20:42:00,
2013-09-16 16:47:00,69.3,60.7,30.19,NE,36,6.0,6.0,74,0.00,,,0.00,WeatherCatV1.20B785,2013-09-16 20:47:00,
2013-09-16 16:52:00,69.3,59.9,30.19,NNW,340,2.0,2.0,72,0.00,,,0.00,WeatherCatV1.20B785,2013-09-16 20:52:00,
2013-09-16 16:57:00,69.2,59.4,30.19,SW,236,0.0,10.0,71,0.00,,,0.00,WeatherCatV1.20B785,2013-09-16 20:57:00,
2013-09-16 17:02:00,68.9,59.5,30.19,NE,35,0.0,1.0,72,0.00,,,0.00,WeatherCatV1.20B785,2013-09-16 21:02:00,
2013-09-16 17:07:00,68.6,60.0,30.19,ENE,71,0.0,3.0,74,0.00,,,0.00,WeatherCatV1.20B785,2013-09-16 21:07:00,
2013-09-16 17:12:00,68.2,60.0,30.19,NNE,27,1.0,5.0,75,0.00,,,0.00,WeatherCatV1.20B785,2013-09-16 21:12:00,
2013-09-16 17:17:00,67.9,58.9,30.19,NNE,31,0.0,2.0,73,0.00,,,0.00,WeatherCatV1.20B785,2013-09-16 21:17:00,
2013-09-16 17:22:00,67.7,59.8,30.19,NNE,17,0.0,3.0,76,0.00,,,0.00,WeatherCatV1.20B785,2013-09-16 21:22:00,
2013-09-16 17:27:00,67.5,60.4,30.19,NE,40,0.0,9.0,78,0.00,,,0.00,WeatherCatV1.20B785,2013-09-16 21:27:00,
2013-09-16 17:32:00,67.4,59.9,30.19,NE,41,3.0,7.0,77,0.00,,,0.00,WeatherCatV1.20B785,2013-09-16 21:32:00,
2013-09-16 17:37:00,67.4,60.3,30.19,NNE,15,0.0,6.0,78,0.00,,,0.00,WeatherCatV1.20B785,2013-09-16 21:37:00,
2013-09-16 17:42:00,67.2,59.7,30.19,NE,35,0.0,5.0,77,0.00,,,0.00,WeatherCatV1.20B785,2013-09-16 21:42:00,
2013-09-16 17:47:00,67.2,60.1,30.19,NNE,17,5.0,6.0,78,0.00,,,0.00,WeatherCatV1.20B785,2013-09-16 21:47:00,
2013-09-16 17:52:00,67.1,60.4,30.19,NNE,27,0.0,0.0,79,0.00,,,0.00,WeatherCatV1.20B785,2013-09-16 21:52:00,
2013-09-16 17:57:00,67.1,60.7,30.19,NNE,30,3.0,7.0,80,0.00,,,0.00,WeatherCatV1.20B785,2013-09-16 21:57:00,
2013-09-16 18:02:00,67.0,60.3,30.19,NNE,29,0.0,3.0,79,0.00,,,0.00,WeatherCatV1.20B785,2013-09-16 22:02:00,
2013-09-16 18:07:00,66.9,60.2,30.19,NNE,33,1.0,8.0,79,0.00,,,0.00,WeatherCatV1.20B785,2013-09-16 22:07:00,
2013-09-16 18:12:00,66.9,59.5,30.19,NNE,20,0.0,1.0,77,0.00,,,0.00,WeatherCatV1.20B785,2013-09-16 22:12:00,
2013-09-16 18:17:00,67.0,59.9,30.19,NE,45,1.0,4.0,78,0.00,,,0.00,WeatherCatV1.20B785,2013-09-16 22:17:00,
2013-09-16 18:22:00,67.0,60.3,30.19,NE,35,0.0,3.0,79,0.00,,,0.00,WeatherCatV1.20B785,2013-09-16 22:22:00,
2013-09-16 18:27:00,66.9,59.8,30.20,NNE,13,0.0,2.0,78,0.00,,,0.00,WeatherCatV1.20B785,2013-09-16 22:27:00,
2013-09-16 18:32:00,66.6,60.6,30.20,NNE,28,4.0,5.0,81,0.00,,,0.00,WeatherCatV1.20B785,2013-09-16 22:32:00,
2013-09-16 18:37:00,66.3,59.9,30.20,NNW,336,0.0,2.0,80,0.00,,,0.00,WeatherCatV1.20B785,2013-09-16 22:37:00,
2013-09-16 18:42:00,66.2,60.2,30.20,NW,311,0.0,1.0,81,0.00,,,0.00,WeatherCatV1.20B785,2013-09-16 22:42:00,
2013-09-16 18:47:00,66.0,60.3,30.20,SW,221,3.0,5.0,82,0.00,,,0.00,WeatherCatV1.20B785,2013-09-16 22:47:00,
2013-09-16 18:52:00,65.7,59.7,30.20,NNE,28,0.0,0.0,81,0.00,,,0.00,WeatherCatV1.20B785,2013-09-16 22:52:00,
2013-09-16 18:57:00,65.5,59.8,30.20,NNE,28,0.0,0.0,82,0.00,,,0.00,WeatherCatV1.20B785,2013-09-16 22:57:00,
2013-09-16 19:02:00,65.2,59.9,30.20,NNE,28,0.0,0.0,83,0.00,,,0.00,WeatherCatV1.20B785,2013-09-16 23:02:00,
2013-09-16 19:07:00,64.9,59.6,30.20,West,263,0.0,3.0,83,0.00,,,0.00,WeatherCatV1.20B785,2013-09-16 23:07:00,
2013-09-16 19:12:00,64.7,59.8,30.20,East,79,0.0,2.0,84,0.00,,,0.00,WeatherCatV1.20B785,2013-09-16 23:12:00,
2013-09-16 19:17:00,64.5,59.9,30.20,West,275,0.0,0.0,85,0.00,,,0.00,WeatherCatV1.20B785,2013-09-16 23:17:00,
2013-09-16 19:22:00,64.3,59.7,30.20,West,275,0.0,0.0,85,0.00,,,0.00,WeatherCatV1.20B785,2013-09-16 23:22:00,
2013-09-16 19:27:00,64.1,59.5,30.20,West,270,0.0,0.0,85,0.00,,,0.00,WeatherCatV1.20B785,2013-09-16 23:27:00,
2013-09-16 19:32:00,64.0,59.7,30.20,West,271,0.0,0.0,86,0.00,,,0.00,WeatherCatV1.20B785,2013-09-16 23:32:00,
2013-09-16 19:37:00,63.9,59.6,30.20,West,271,0.0,0.0,86,0.00,,,0.00,WeatherCatV1.20B785,2013-09-16 23:37:00,
2013-09-16 19:42:00,63.7,59.8,30.20,West,271,0.0,1.0,87,0.00,,,0.00,WeatherCatV1.20B785,2013-09-16 23:42:00,
2013-09-16 19:47:00,63.5,59.6,30.21,West,271,0.0,0.0,87,0.00,,,0.00,WeatherCatV1.20B785,2013-09-16 23:47:00,
2013-09-16 19:52:00,63.4,59.5,30.21,West,271,0.0,0.0,87,0.00,,,0.00,WeatherCatV1.20B785,2013-09-16 23:52:00,
2013-09-16 19:57:00,63.2,59.6,30.21,West,271,0.0,1.0,88,0.00,,,0.00,WeatherCatV1.20B785,2013-09-16 23:57:00,
2013-09-16 20:02:00,63.1,59.5,30.21,West,271,0.0,0.0,88,0.00,,,0.00,WeatherCatV1.20B785,2013-09-17 00:02:00,
2013-09-16 20:07:00,63.0,59.4,30.21,West,271,0.0,0.0,88,0.00,,,0.00,WeatherCatV1.20B785,2013-09-17 00:07:00,
2013-09-16 20:12:00,62.8,59.2,30.21,West,271,0.0,0.0,88,0.00,,,0.00,WeatherCatV1.20B785,2013-09-17 00:12:00,
2013-09-16 20:17:00,62.7,59.1,30.21,West,271,0.0,0.0,88,0.00,,,0.00,WeatherCatV1.20B785,2013-09-17 00:17:00,
2013-09-16 20:22:00,62.6,59.0,30.21,West,271,0.0,0.0,88,0.00,,,0.00,WeatherCatV1.20B785,2013-09-17 00:22:00,
2013-09-16 20:27:00,62.6,58.7,30.21,West,271,0.0,0.0,87,0.00,,,0.00,WeatherCatV1.20B785,2013-09-17 00:27:00,
2013-09-16 20:32:00,62.6,58.7,30.22,West,271,0.0,0.0,87,0.00,,,0.00,WeatherCatV1.20B785,2013-09-17 00:32:00,
2013-09-16 20:37:00,62.5,58.6,30.22,West,271,0.0,0.0,87,0.00,,,0.00,WeatherCatV1.20B785,2013-09-17 00:37:00,
2013-09-16 20:42:00,62.5,58.9,30.22,West,271,0.0,0.0,88,0.00,,,0.00,WeatherCatV1.20B785,2013-09-17 00:42:00,
2013-09-16 20:47:00,62.5,58.9,30.22,West,271,0.0,1.0,88,0.00,,,0.00,WeatherCatV1.20B785,2013-09-17 00:47:00,
2013-09-16 20:52:00,62.5,58.9,30.22,West,271,0.0,0.0,88,0.00,,,0.00,WeatherCatV1.20B785,2013-09-17 00:52:00,
2013-09-16 20:57:00,62.4,58.5,30.22,West,271,0.0,1.0,87,0.00,,,0.00,WeatherCatV1.20B785,2013-09-17 00:57:00,
2013-09-16 21:02:00,62.5,58.6,30.23,West,271,0.0,0.0,87,0.00,,,0.00,WeatherCatV1.20B785,2013-09-17 01:02:00,
2013-09-16 21:07:00,62.4,58.2,30.23,West,271,0.0,1.0,86,0.00,,,0.00,WeatherCatV1.20B785,2013-09-17 01:07:00,
2013-09-16 21:12:00,62.4,57.8,30.23,West,271,0.0,0.0,85,0.00,,,0.00,WeatherCatV1.20B785,2013-09-17 01:12:00,
2013-09-16 21:17:00,62.4,57.5,30.23,West,271,0.0,0.0,84,0.00,,,0.00,WeatherCatV1.20B785,2013-09-17 01:17:00,
2013-09-16 21:22:00,62.4,57.2,30.23,West,271,0.0,0.0,83,0.00,,,0.00,WeatherCatV1.20B785,2013-09-17 01:22:00,
2013-09-16 21:27:00,62.4,57.2,30.23,West,271,0.0,0.0,83,0.00,,,0.00,WeatherCatV1.20B785,2013-09-17 01:27:00,
2013-09-16 21:32:00,62.4,57.2,30.23,West,271,0.0,0.0,83,0.00,,,0.00,WeatherCatV1.20B785,2013-09-17 01:32:00,
2013-09-16 21:37:00,62.4,57.2,30.23,West,271,0.0,0.0,83,0.00,,,0.00,WeatherCatV1.20B785,2013-09-17 01:37:00,
2013-09-16 21:42:00,62.3,57.1,30.23,West,271,0.0,0.0,83,0.00,,,0.00,WeatherCatV1.20B785,2013-09-17 01:42:00,
2013-09-16 21:47:00,62.3,57.1,30.23,West,271,0.0,0.0,83,0.00,,,0.00,WeatherCatV1.20B785,2013-09-17 01:47:00,
2013-09-16 21:52:00,62.3,56.7,30.23,West,271,0.0,0.0,82,0.00,,,0.00,WeatherCatV1.20B785,2013-09-17 01:52:00,
2013-09-16 21:57:00,62.3,56.7,30.23,West,271,0.0,0.0,82,0.00,,,0.00,WeatherCatV1.20B785,2013-09-17 01:57:00,
2013-09-16 22:02:00,62.3,56.7,30.24,West,271,0.0,0.0,82,0.00,,,0.00,WeatherCatV1.20B785,2013-09-17 02:02:00,
2013-09-16 22:07:00,62.3,56.4,30.24,West,271,0.0,0.0,81,0.00,,,0.00,WeatherCatV1.20B785,2013-09-17 02:07:00,
2013-09-16 22:12:00,62.3,56.4,30.24,West,271,0.0,0.0,81,0.00,,,0.00,WeatherCatV1.20B785,2013-09-17 02:12:00,
2013-09-16 22:17:00,62.3,56.7,30.24,West,271,0.0,0.0,82,0.00,,,0.00,WeatherCatV1.20B785,2013-09-17 02:17:00,
2013-09-16 22:22:00,62.2,56.6,30.24,West,271,0.0,0.0,82,0.00,,,0.00,WeatherCatV1.20B785,2013-09-17 02:22:00,
2013-09-16 22:27:00,62.2,56.6,30.24,West,271,0.0,0.0,82,0.00,,,0.00,WeatherCatV1.20B785,2013-09-17 02:27:00,
2013-09-16 22:32:00,62.2,57.6,30.24,West,271,0.0,0.0,85,0.00,,,0.00,WeatherCatV1.20B785,2013-09-17 02:32:00,
2013-09-16 22:37:00,62.1,57.5,30.24,West,271,0.0,0.0,85,0.00,,,0.00,WeatherCatV1.20B785,2013-09-17 02:37:00,
2013-09-16 22:42:00,61.8,57.6,30.24,West,271,0.0,0.0,86,0.00,,,0.00,WeatherCatV1.20B785,2013-09-17 02:42:00,
2013-09-16 22:47:00,61.7,57.5,30.24,West,271,0.0,0.0,86,0.00,,,0.00,WeatherCatV1.20B785,2013-09-17 02:47:00,
2013-09-16 22:52:00,61.6,57.4,30.24,West,271,0.0,0.0,86,0.00,,,0.00,WeatherCatV1.20B785,2013-09-17 02:52:00,
2013-09-16 22:57:00,61.4,57.2,30.24,West,271,0.0,0.0,86,0.00,,,0.00,WeatherCatV1.20B785,2013-09-17 02:57:00,
2013-09-16 23:02:00,61.3,57.4,30.24,West,271,0.0,0.0,87,0.00,,,0.00,WeatherCatV1.20B785,2013-09-17 03:02:00,
2013-09-16 23:07:00,61.3,57.4,30.24,West,271,0.0,0.0,87,0.00,,,0.00,WeatherCatV1.20B785,2013-09-17 03:07:00,
2013-09-16 23:12:00,61.3,57.4,30.24,West,271,0.0,0.0,87,0.00,,,0.00,WeatherCatV1.20B785,2013-09-17 03:12:00,
2013-09-16 23:17:00,61.2,57.0,30.24,West,268,0.0,0.0,86,0.00,,,0.00,WeatherCatV1.20B785,2013-09-17 03:17:00,
2013-09-16 23:22:00,61.2,57.6,30.24,West,268,0.0,0.0,88,0.00,,,0.00,WeatherCatV1.20B785,2013-09-17 03:22:00,
2013-09-16 23:27:00,61.1,57.2,30.24,West,268,0.0,0.0,87,0.00,,,0.00,WeatherCatV1.20B785,2013-09-17 03:27:00,
2013-09-16 23:32:00,61.0,57.4,30.24,West,268,0.0,0.0,88,0.00,,,0.00,WeatherCatV1.20B785,2013-09-17 03:32:00,
2013-09-16 23:37:00,61.0,57.1,30.25,West,268,0.0,0.0,87,0.00,,,0.00,WeatherCatV1.20B785,2013-09-17 03:37:00,
2013-09-16 23:42:00,61.1,57.5,30.24,West,268,0.0,0.0,88,0.00,,,0.00,WeatherCatV1.20B785,2013-09-17 03:42:00,
2013-09-16 23:47:00,61.2,57.0,30.24,SE,138,0.0,0.0,86,0.00,,,0.00,WeatherCatV1.20B785,2013-09-17 03:47:00,
2013-09-16 23:52:00,61.4,57.2,30.24,SSE,167,0.0,0.0,86,0.00,,,0.00,WeatherCatV1.20B785,2013-09-17 03:52:00,
2013-09-16 23:57:00,61.6,57.0,30.25,SSE,156,0.0,3.0,85,0.00,,,0.00,WeatherCatV1.20B785,2013-09-17 03:57:00,